Regional Weather Roundup
Issued by NWS Cleveland, OH

Home | Current Version | Previous Version | Graphics & Text | Print | Product List | Glossary On
Versions: 1 2 3 4 5 6 7 8 9 10 11 12 13 14 15 16 17 18 19 20 21 22 23 24 25 26 27 28 29 30 31 32 33 34 35 36 37 38 39 40 41 42 43 44 45 46 47 48 49 50
000
ASUS41 KCLE 300310
RWRCLE
OHIO REGIONAL WEATHER ROUNDUP
NATIONAL WEATHER SERVICE WILMINGTON, OH
1100 PM EDT MON AUG 29 2016

NOTE: "FAIR" INDICATES FEW OR NO CLOUDS BELOW 12,000 FEET WITH NO
SIGNIFICANT WEATHER AND/OR OBSTRUCTIONS TO VISIBILITY.

OHZ001>008-015>018-024>027-034-035-043-044-300400-
   NORTHWEST OHIO

CITY           SKY/WX    TMP DP  RH WIND       PRES   REMARKS
DEFIANCE       FAIR      72  65  78 E3        30.21S
FINDLAY        FAIR      71  61  70 E7        30.20F
TOLEDO EXPRESS FAIR      65  65 100 E3        30.20F
TOLEDO EXEC    FAIR      69  67  93 E3        30.21F
LIMA           FAIR      68  66  93 E6        30.21F
$$

OHZ009>014-019>023-028>033-038-089-300400-
   NORTHEAST OHIO

CITY           SKY/WX    TMP DP  RH WIND       PRES   REMARKS
CLE-HOPKINS    FAIR      72  56  57 E6        30.24S
CLE-LAKEFRONT  FAIR      73  58  59 SE3       30.21F
CUY CO. ARPT   CLEAR     63  59  88 SE6       30.24S
LORAIN-ELYRIA  FAIR      62  59  90 CALM      30.23F
ASHTABULA      FAIR      59  59 100 CALM      30.24F
AKRON-CANTON   FAIR      69  57  65 NE9       30.23S
WOOSTER        FAIR      64  60  87 N3        30.24S
MANSFIELD      FAIR      67  62  84 NE5       30.23F
YOUNGSTOWN     FAIR      63  57  81 NE8       30.23F
$$

OHZ042-051>053-060>062-070>072-077>081-300400-
  SOUTHWEST OHIO

CITY           SKY/WX    TMP DP  RH WIND       PRES   REMARKS
CINC-COVINGTON FAIR      81  71  71 E7        30.17S
CINC-LUNKEN    FAIR      74  74 100 E3        30.16F
HAMILTON       FAIR      74  70  87 CALM      30.17F
DAYTON         FAIR      74  69  85 E7        30.20F
WRIGHT-PAT AFB FAIR      73  69  86 NE3       30.18F
DAYTON GENERAL FAIR      76  67  73 NE6       30.18F
WILMINGTON     FAIR      73  69  87 NE7       30.19S
$$

OHZ036-037-039>041-045>050-054>059-063>069-073>076-082>088-300400-
  CENTRAL AND SOUTHEAST OHIO

CITY           SKY/WX    TMP DP  RH WIND       PRES   REMARKS
COLUMBUS       FAIR      73  66  78 NE8       30.19S
OSU AIRPORT    FAIR      73  67  81 NE8       30.20S
BOLTON FIELD   FAIR      72  67  85 N5        30.20S
RICKENBACK AFB FAIR      75  68  77 N5        30.18S
NEWARK         FAIR      71  68  90 N3        30.19F
MARION         FAIR      68  63  84 NE5       30.22F
LANCASTER      FAIR      69  67  93 CALM      30.19F
ZANESVILLE     FAIR      71  66  84 CALM      30.19F
NEW PHILLY     FAIR      67  61  81 CALM      30.22S
$$




USA.gov is the U.S. government's official web portal to all federal, state and local government web resources and services.